Location: Madrid
(40.4000°N, 3.6830°W)
Time: 04:12:41
(UTC+01:00)

ISS - Pass Details

Date: 09 November 2019
Orbit: 412 x 421 km, 51.6° (Epoch: 12 November)

Event Time Altitude Azimuth Distance (km) Brightness Sun altitude
Exits shadow 07:19:58 - 306° (NW) 1,681 -1.3 -6.8°
Reaches altitude 10° 07:20:24 10° 306° (NW) 1,504 -1.5 -6.8°
Maximum altitude 07:23:47 86° 222° (SW) 424 -3.8 -6.1°
Drops below altitude 10° 07:27:08 10° 129° (SE) 1,492 0.4 -5.5°
Sets 07:29:13 0° 129° (SE) 2,350 1.6 -5.2°
